ECMWFNIL_250_spd_093.txt.gz
Wind_Speed
42 46 47 46 45 44 43 40 38 38 40 41 40 38 38 38 40 44 44 42 42 41 40 40 39 39 41 43 43 43 43 42 41 42 42 41 40 40 40 39 39 40
42 46 47 48 47 46 44 39 37 37 38 41 43 41 38 37 37 40 44 45 45 44 42 42 42 43 44 45 45 45 46 46 46 46 45 44 42 41 41 41 43 46
41 45 47 49 48 46 45 40 35 35 36 38 42 41 38 38 38 38 42 47 49 47 45 44 44 45 46 47 47 47 47 47 48 48 48 47 47 47 48 49 52 54
40 43 46 48 48 47 46 42 36 33 34 36 40 41 39 40 41 40 42 48 51 51 49 48 47 47 48 48 47 47 47 48 48 50 50 50 51 51 52 54 55 55
40 41 43 46 48 47 47 45 38 31 29 32 37 42 42 43 44 43 45 48 52 52 52 52 51 51 51 49 48 48 48 48 48 49 50 51 52 53 52 52 52 50
40 40 41 44 46 46 45 44 39 32 27 27 33 41 46 48 47 46 46 49 53 54 54 53 52 53 55 53 51 51 52 50 47 46 45 45 45 45 44 44 44 44
39 39 39 42 44 45 44 44 40 34 29 26 29 38 47 50 49 47 46 48 52 56 57 55 52 52 55 56 54 53 53 50 46 44 43 42 42 41 41 40 39 38
39 40 40 40 41 44 45 45 43 34 27 27 29 34 43 49 48 47 46 46 48 53 56 56 54 53 52 51 51 50 49 47 45 43 43 44 44 44 44 42 40 39
40 42 42 39 38 43 45 45 43 34 27 28 31 32 38 46 47 46 46 47 47 48 50 51 52 51 50 49 49 49 48 47 46 46 46 47 47 47 47 45 42 40
39 41 43 40 38 40 43 44 43 39 33 31 32 33 36 41 44 43 43 48 49 49 49 50 49 49 49 50 50 49 49 49 50 50 50 50 49 49 47 45 43 41
38 40 40 40 39 39 41 44 44 43 41 38 35 37 37 39 41 40 40 46 51 51 52 52 52 51 50 50 50 49 50 51 51 51 51 50 49 48 46 45 44 43
37 40 39 38 38 38 39 43 44 42 42 41 41 41 40 40 41 39 39 45 49 51 54 54 53 51 50 49 50 50 51 51 51 51 51 50 48 47 46 46 45 45
37 39 39 36 36 36 38 42 43 38 36 38 41 42 42 44 43 40 39 41 43 47 52 54 53 52 51 51 51 51 52 53 53 53 52 51 49 48 48 47 46 46
36 38 37 34 33 34 37 41 41 36 32 35 39 41 42 45 47 45 42 41 40 42 46 49 51 52 52 52 52 52 53 53 54 53 52 51 50 49 49 48 47 47
33 35 35 33 32 33 36 39 40 36 34 35 37 40 41 42 45 48 49 46 43 42 44 45 47 48 49 50 51 52 53 53 54 54 53 52 51 51 50 49 48 47
33 34 35 35 34 35 35 38 39 38 37 36 36 39 41 42 43 47 50 51 49 47 46 45 45 44 45 47 49 51 52 53 54 54 53 52 52 51 50 49 47 46
34 34 35 36 37 37 37 38 40 41 40 39 37 38 41 42 44 46 50 52 53 53 51 49 47 45 44 44 45 47 47 49 49 49 49 49 49 48 47 47 47 48
37 36 36 35 36 37 38 40 42 43 43 41 40 41 41 42 44 47 49 50 52 53 54 53 53 51 49 47 46 45 45 46 47 47 48 48 48 49 49 50 51 52
37 38 39 39 38 38 40 42 44 46 45 44 42 42 42 43 44 46 47 48 49 49 50 53 55 56 56 54 53 51 50 51 52 53 53 54 54 54 55 55 55 55
36 37 39 40 42 42 42 43 44 46 48 48 47 45 45 46 46 47 47 47 47 46 47 49 52 55 57 58 58 58 58 58 58 59 59 59 60 59 59 59 59 58
37 37 37 39 41 44 46 46 47 47 48 49 50 50 50 49 49 49 48 48 49 49 49 51 52 54 56 57 59 60 60 61 62 62 63 63 63 63 63 63 62 60
40 39 39 40 41 43 45 48 49 49 50 50 51 52 52 51 51 52 52 52 52 52 53 54 56 58 59 60 60 61 61 62 63 64 64 65 65 65 64 64 63 61
40 42 42 43 44 45 46 47 48 50 51 53 54 54 54 53 53 53 54 54 55 54 54 53 54 56 58 60 61 62 62 62 63 64 65 65 65 65 65 64 63 61
39 42 44 45 46 48 49 49 50 50 52 54 56 56 57 57 56 55 55 55 55 55 54 52 53 55 57 57 60 62 62 62 63 63 64 65 66 66 66 65 63 62
40 41 44 47 48 49 50 51 52 53 53 55 56 56 58 59 58 57 56 55 55 55 56 56 56 59 59 59 60 62 62 62 63 64 65 66 67 67 67 66 64 65
43 42 43 46 48 50 51 52 54 55 55 56 57 58 59 59 59 59 58 57 57 57 57 58 59 60 61 61 62 62 62 63 64 66 69 70 69 69 69 68 67 68

ECMWFNIL_250_spd_096.txt.gz
Wind_Speed
46 46 45 45 46 46 45 46 48 48 46 44 41 40 40 40 40 40 39 39 39 39 39 37 37 38 39 40 41 42 42 40 37 36 37 39 40 42 43 40 38 38
43 43 42 42 44 44 44 46 49 50 48 44 41 39 37 39 41 41 40 40 40 41 41 38 35 36 37 39 39 39 39 38 38 38 39 38 38 40 43 42 40 41
39 39 38 38 40 39 40 45 49 51 50 46 41 38 36 38 41 41 42 42 42 43 42 38 37 37 38 39 40 39 38 36 38 41 42 42 40 41 44 44 44 46
35 34 33 34 35 34 37 44 49 52 51 47 42 38 36 39 40 40 42 42 41 43 44 39 37 40 41 41 41 42 40 38 39 42 45 46 46 47 48 47 47 47
32 30 29 31 32 32 36 44 50 52 50 47 44 37 34 37 39 38 40 40 38 40 44 42 40 41 42 42 43 43 43 44 45 47 48 48 49 50 50 48 48 49
29 27 27 28 29 31 37 44 49 52 50 47 43 37 34 37 36 34 36 39 37 36 40 43 43 42 43 44 45 45 46 48 50 50 51 50 50 51 50 49 50 49
26 24 24 26 27 31 37 43 48 51 50 46 41 37 37 38 35 30 32 37 38 37 39 42 44 45 44 45 46 48 49 50 51 52 51 51 52 52 51 50 51 48
23 21 21 23 25 30 36 41 46 50 49 44 40 36 36 38 35 30 29 33 36 39 42 42 43 45 46 47 49 50 51 52 54 55 54 54 55 54 53 53 52 50
19 17 19 21 25 29 32 37 44 48 47 43 39 35 34 36 37 33 31 33 35 41 46 46 44 44 45 49 54 55 54 53 55 56 55 56 55 53 52 51 50 50
17 16 18 22 26 30 32 36 43 46 46 43 38 35 34 35 37 37 35 34 37 42 45 43 44 46 46 48 54 59 60 58 56 55 53 53 52 51 50 50 50 50
17 17 21 25 28 31 32 35 41 44 45 43 38 36 37 35 36 39 38 37 39 42 42 38 39 42 45 48 51 56 60 62 60 57 56 56 56 56 55 53 52 51
18 20 24 27 30 32 32 32 37 42 44 44 40 38 38 35 34 38 40 41 42 43 44 42 41 42 46 49 51 52 55 60 63 63 62 63 63 62 59 56 54 52
19 21 25 28 30 33 33 31 34 39 43 45 40 37 37 35 33 35 37 38 40 42 44 46 49 52 53 52 53 54 54 56 60 62 63 63 62 62 60 57 55 54
21 22 26 28 30 33 33 32 32 37 44 46 40 35 36 36 35 35 36 35 35 38 42 46 51 55 57 56 56 56 56 57 58 59 60 60 60 61 60 58 56 56
22 23 27 29 30 31 31 32 32 35 43 46 41 37 37 37 37 37 39 41 39 38 41 46 50 52 54 54 54 55 56 58 59 60 61 62 62 62 61 59 58 57
24 24 26 29 30 30 28 29 31 34 41 44 43 41 40 39 39 36 37 43 46 46 46 47 47 49 50 50 50 51 54 55 57 60 61 62 62 61 60 59 58 57
27 25 25 27 29 30 28 28 31 35 40 43 42 41 39 39 40 38 37 39 43 49 53 53 51 49 48 48 49 50 52 53 54 55 57 57 57 57 57 57 57 57
29 28 26 26 28 30 30 30 31 35 39 42 41 39 37 36 37 39 40 41 42 46 51 54 55 54 50 49 50 50 51 53 54 55 56 56 56 56 56 56 57 57
31 31 30 29 29 31 32 32 32 34 37 40 41 39 38 37 37 38 42 45 47 47 47 49 53 54 53 51 51 50 50 51 53 54 55 56 56 56 56 57 57 57
33 34 34 33 32 33 34 35 35 35 37 40 42 41 40 40 41 42 43 45 48 48 49 50 51 53 54 54 54 54 53 53 54 55 55 56 56 56 56 57 57 58
35 36 37 37 37 36 37 38 39 38 39 41 44 45 44 44 45 45 44 45 47 48 49 50 51 53 56 56 56 57 57 57 58 58 59 59 59 59 59 60 60 60
38 38 40 40 40 40 40 42 43 43 44 45 47 49 50 50 50 49 48 47 48 49 49 50 51 53 54 56 57 58 59 60 60 60 61 61 61 62 63 63 64 63
41 41 42 43 43 44 44 45 46 46 48 50 51 53 55 56 55 54 53 52 52 52 51 52 53 53 53 54 55 56 58 59 60 61 61 62 64 65 66 67 68 67
42 44 45 46 47 47 48 49 49 49 50 51 53 55 57 58 59 59 58 57 56 55 54 53 53 54 54 54 54 55 57 58 59 60 62 64 66 68 69 70 72 71
40 46 47 48 50 51 51 52 53 53 54 54 55 56 57 58 59 60 61 61 60 59 59 58 57 58 58 58 58 57 57 58 60 62 64 66 69 72 73 74 76 75
36 44 49 50 51 53 55 55 56 57 58 58 59 59 60 60 60 61 61 62 63 62 62 63 64 64 64 64 64 63 62 61 61 61 63 65 67 70 73 74 75 75

ECMWFNIL_250_spd_102.txt.gz
Wind_Speed
59 58 55 53 52 52 51 49 47 46 44 38 34 34 36 38 42 40 36 36 39 45 47 44 45 45 43 44 45 45 44 45 45 44 41 38 36 36 35 35 35 34
59 56 54 52 52 51 49 46 45 44 42 37 30 29 32 34 38 40 36 35 34 36 40 42 43 44 42 42 44 45 45 47 48 45 43 43 41 39 37 36 36 36
57 54 52 51 50 48 46 44 43 41 39 35 28 27 30 30 36 40 36 35 33 32 38 41 40 38 38 39 42 44 44 47 49 47 44 45 45 42 39 38 38 38
56 53 51 49 48 45 44 43 40 37 34 30 25 24 24 23 31 38 34 34 35 32 36 40 39 36 34 37 41 45 45 45 48 48 46 45 44 43 42 42 41 40
54 51 49 47 45 43 41 40 36 32 28 24 21 20 19 19 27 34 34 34 35 32 30 33 36 34 33 35 40 46 47 45 44 46 46 45 43 44 46 46 45 43
52 49 46 45 43 41 38 35 31 26 21 18 16 16 17 21 27 32 34 33 33 30 27 27 32 34 34 35 38 43 47 46 44 45 45 43 42 43 45 46 45 44
49 47 44 43 41 39 36 31 25 19 14 12 13 14 17 21 25 28 30 31 28 25 24 25 28 32 37 40 40 40 42 43 44 45 44 43 42 42 43 43 43 43
47 44 42 41 39 37 34 27 20 14 11 12 15 18 19 21 23 24 26 28 26 24 24 25 27 29 35 40 41 41 40 41 43 46 47 46 44 42 41 42 43 43
45 42 39 39 38 35 31 23 17 12 13 15 17 20 21 23 24 24 25 26 25 23 24 26 27 28 31 36 40 42 42 43 44 46 48 48 46 44 44 45 46 46
43 39 37 37 36 34 28 21 15 14 17 18 20 22 22 24 25 26 27 26 23 22 21 23 25 28 32 36 41 44 43 42 44 44 45 46 45 45 47 48 48 47
41 37 35 36 35 33 27 20 16 17 20 22 24 26 24 24 26 27 28 28 27 24 23 26 29 31 34 37 43 47 44 41 42 43 42 43 45 46 47 48 48 47
39 35 34 34 34 32 27 20 18 20 23 24 26 27 26 26 27 27 28 31 33 28 24 28 32 32 34 37 43 47 46 42 41 42 43 43 44 46 47 48 48 49
37 34 33 33 33 31 27 20 20 23 26 26 27 28 28 28 29 29 29 33 36 31 27 30 33 34 35 40 43 45 45 44 42 43 45 45 45 46 47 49 50 51
36 33 32 32 32 31 27 21 21 25 28 29 29 30 30 29 30 30 32 35 36 33 31 32 35 36 37 41 44 45 46 46 44 44 45 46 48 49 50 51 52 53
36 33 32 32 31 30 28 23 22 26 30 32 32 32 32 30 30 31 34 38 38 36 35 36 38 39 39 39 42 45 45 46 46 44 44 46 48 51 53 54 54 55
36 34 32 31 31 30 29 25 22 26 32 34 34 34 32 31 32 33 36 41 42 39 37 37 39 41 41 40 41 43 45 46 46 46 46 47 48 51 53 54 54 55
37 35 33 32 31 30 30 27 24 26 32 37 37 35 33 32 34 36 39 44 45 42 39 39 40 42 43 41 41 42 44 46 48 49 49 49 49 50 50 50 52 53
39 37 35 33 32 30 30 29 26 26 32 39 41 39 36 34 35 38 41 46 47 45 41 41 41 43 45 46 46 45 45 46 48 51 53 52 52 53 52 52 54 54
41 40 37 35 34 32 30 31 29 27 31 39 44 45 41 37 37 39 43 47 49 47 45 44 43 44 46 49 52 52 52 50 50 52 54 54 55 56 56 56 56 57
44 43 40 38 37 34 31 31 31 30 30 36 44 48 47 43 40 41 43 47 50 49 48 48 47 46 46 48 52 55 57 56 54 53 54 54 55 55 55 56 57 58
46 45 43 41 40 38 34 31 31 32 32 34 40 47 51 50 46 44 45 48 50 50 50 50 50 49 48 49 51 53 56 58 56 55 54 54 55 55 54 56 58 60
48 48 46 45 43 42 39 35 32 32 34 35 38 44 51 54 53 50 48 49 51 52 51 51 52 51 50 51 52 53 55 58 58 57 56 57 57 57 56 57 59 61
51 50 50 48 47 45 43 40 35 32 33 36 39 42 47 54 57 56 54 53 53 54 54 53 53 53 53 53 52 53 54 56 59 60 61 61 61 61 61 61 62 63
53 53 53 52 51 49 47 45 41 36 33 35 39 43 46 52 57 60 60 58 57 57 57 56 55 55 56 56 56 55 54 54 57 59 61 62 63 64 65 66 67 67
56 56 56 55 54 53 51 49 46 43 37 35 38 43 47 51 56 61 63 64 63 61 61 61 59 57 57 58 59 59 58 57 57 58 60 61 62 64 65 67 68 69
59 59 58 58 57 56 54 53 51 48 44 39 37 41 47 52 56 60 64 66 67 66 65 64 64 62 60 59 60 61 61 61 60 61 62 63 63 65 66 68 69 69

ECMWFNIL_250_spd_105.txt.gz
Wind_Speed
56 55 57 59 61 62 63 64 64 63 61 58 56 57 57 57 55 51 45 46 49 49 49 48 45 41 39 37 35 33 35 35 35 35 38 41 40 38 38 38 37 36
55 55 57 59 61 62 63 63 63 61 58 56 56 57 57 55 52 47 41 41 45 44 45 49 47 43 41 40 38 36 36 37 36 35 38 43 43 40 38 39 39 39
54 55 57 59 60 61 62 62 61 59 55 55 55 55 54 51 46 41 36 36 39 37 38 45 48 46 44 42 40 38 36 34 34 35 37 41 42 41 40 41 43 42
54 55 57 59 59 60 60 61 60 56 53 53 53 52 48 44 40 35 31 29 29 29 32 41 44 44 43 40 38 38 36 33 33 34 36 39 39 38 38 39 42 42
54 56 57 57 58 58 58 59 57 54 51 50 50 47 42 37 33 29 26 23 23 24 31 39 40 39 39 37 36 36 36 34 33 34 36 39 38 37 36 36 37 39
55 56 56 56 57 56 56 57 55 52 48 47 46 41 34 30 26 22 21 20 19 21 30 37 37 36 35 33 32 32 33 33 32 32 35 39 40 40 40 39 38 37
54 55 54 54 55 55 55 54 52 49 45 43 40 34 28 23 18 15 15 15 17 21 30 34 33 31 29 29 31 32 34 34 33 32 35 37 40 42 44 44 43 40
53 53 52 53 53 53 53 52 50 47 42 39 34 28 23 18 13 10 10 13 19 23 28 32 32 30 29 30 32 34 36 35 34 34 37 39 40 41 43 45 45 42
51 51 51 51 51 52 52 50 48 44 39 35 30 24 21 17 12 10 10 14 19 23 26 30 32 31 29 30 32 35 36 36 36 36 38 41 43 43 43 44 44 42
49 49 49 49 49 50 50 48 46 42 37 32 27 23 21 17 15 13 14 16 19 23 26 29 32 31 31 30 30 33 36 36 38 40 39 39 43 44 45 44 44 44
48 48 48 48 48 48 48 46 44 41 35 30 25 23 23 20 19 18 19 20 22 25 27 28 31 31 32 32 31 32 32 33 36 39 38 38 41 43 43 44 44 46
46 46 46 46 47 47 46 44 42 40 35 29 24 24 25 23 22 22 23 25 26 27 28 28 29 31 33 34 33 31 30 31 34 36 36 39 42 43 42 42 43 46
45 45 45 45 45 45 44 42 40 39 35 29 24 24 28 27 25 26 27 29 29 29 29 29 31 33 36 37 35 32 31 33 36 38 37 38 41 41 41 42 43 45
45 45 45 44 44 44 43 40 38 38 35 31 25 23 29 31 29 28 30 32 32 32 31 32 34 36 38 39 37 35 34 35 38 40 39 39 38 39 40 42 44 46
44 44 45 44 44 43 42 39 37 36 35 33 28 23 28 34 34 32 33 35 36 36 36 36 37 38 39 40 39 38 36 37 40 42 42 41 39 38 40 43 45 46
44 44 45 44 44 43 42 39 37 35 34 33 31 26 25 34 38 36 36 38 40 40 42 41 40 41 42 42 42 41 39 38 41 43 44 44 43 42 42 44 45 46
44 45 45 45 44 44 42 40 38 36 34 33 32 30 27 30 39 41 40 41 42 43 44 45 44 45 46 45 44 42 40 40 42 44 45 46 46 45 45 46 47 48
44 46 46 46 45 44 43 42 40 38 36 33 32 32 31 29 34 43 45 44 44 45 46 47 47 47 48 49 47 44 42 42 43 46 48 48 49 48 48 49 50 51
45 47 47 47 46 45 44 43 42 40 38 36 33 32 32 32 31 38 46 48 47 47 48 49 50 50 51 52 52 49 47 46 46 47 49 51 51 51 50 51 51 52
46 48 48 48 48 47 46 45 44 42 41 39 37 34 33 34 34 34 41 49 52 51 50 51 52 53 53 54 55 54 52 50 48 48 49 51 53 53 53 53 53 53
48 49 50 50 49 49 48 48 46 45 43 42 41 39 36 35 35 35 37 43 51 54 54 52 53 55 56 57 58 58 56 53 51 50 50 50 52 54 55 56 56 56
49 51 51 52 51 51 51 50 49 48 47 45 44 43 41 38 37 37 37 39 45 53 57 57 55 56 58 59 61 62 61 58 55 54 52 51 52 54 56 58 59 59
51 52 53 53 53 53 53 53 52 51 50 49 48 47 45 43 41 39 39 40 42 47 53 58 59 58 58 60 62 64 65 64 61 59 57 55 54 54 56 58 60 61
53 54 54 55 55 55 55 55 55 54 53 52 52 51 50 48 46 43 41 42 43 45 48 54 60 62 62 61 62 64 66 68 67 65 63 61 59 57 56 57 59 61
55 55 56 56 56 57 57 57 57 57 56 55 55 54 54 53 52 49 46 44 44 46 48 51 56 61 65 66 65 65 66 68 70 70 68 67 65 63 61 59 59 60
56 57 57 57 58 59 59 60 60 59 59 58 58 58 58 57 56 55 52 49 47 47 49 52 55 58 63 68 70 69 68 69 70 72 73 72 70 69 67 65 64 63

ECMWFNIL_250_spd_108.txt.gz
Wind_Speed
58 58 58 57 57 57 58 57 57 56 58 59 61 63 66 68 68 69 68 65 62 60 58 56 53 48 42 37 34 42 51 47 42 38 35 36 36 35 37 38 38 37
59 59 58 58 57 57 57 56 56 56 58 59 60 63 65 66 67 67 65 62 61 61 58 53 46 41 37 32 30 38 49 47 41 38 34 35 37 37 38 38 36 36
60 60 59 58 57 56 55 55 55 56 57 58 60 62 64 65 65 64 61 59 60 60 55 48 39 35 32 28 27 34 45 46 41 37 33 32 34 34 36 38 36 36
61 61 59 57 55 54 54 54 54 55 56 57 59 60 62 63 63 60 57 57 58 55 49 41 33 29 26 23 24 30 40 44 41 37 33 31 31 31 32 36 38 38
59 59 57 55 54 53 53 52 53 54 55 55 57 59 60 61 60 57 54 54 54 49 41 35 29 24 21 19 21 27 34 39 39 37 35 32 31 31 32 34 37 40
53 54 54 53 53 52 52 52 52 53 53 53 55 56 57 58 57 54 52 51 48 42 35 29 24 19 15 14 18 25 29 33 36 37 36 32 29 30 34 32 32 36
50 49 50 50 51 52 51 51 51 52 51 51 52 53 55 55 53 50 49 47 42 36 29 23 17 12 8 8 14 23 29 30 33 35 36 34 29 27 32 33 31 32
48 47 47 47 48 48 48 48 48 49 48 48 49 51 52 53 50 48 46 42 37 31 25 19 13 8 6 7 11 20 28 31 33 34 34 35 32 30 33 33 30 30
47 45 44 43 44 44 44 45 45 45 45 45 47 48 50 50 48 45 43 39 33 29 24 18 13 9 10 10 12 16 23 28 31 32 33 33 32 34 37 33 27 29
45 43 42 41 41 41 42 42 42 43 43 43 44 45 47 48 46 43 41 37 32 28 24 19 15 14 15 16 16 16 20 24 27 28 31 33 33 34 37 35 31 32
43 42 41 40 40 40 40 40 41 42 41 41 42 43 44 45 44 41 38 36 32 29 25 23 21 19 20 20 20 20 21 25 28 30 32 35 36 35 36 38 37 36
42 42 41 40 40 40 40 40 40 41 40 40 40 41 42 42 42 40 38 35 32 31 28 27 26 24 23 24 25 24 25 27 30 32 34 36 39 39 38 41 44 44
42 41 41 41 40 40 39 40 40 40 40 39 39 40 41 40 40 39 38 35 32 32 32 31 30 29 27 26 28 29 29 30 32 33 36 37 40 42 43 44 47 49
42 41 41 41 40 39 39 40 40 40 40 39 39 39 40 39 38 38 37 35 33 32 35 35 34 34 33 31 31 32 32 33 34 36 38 40 41 43 45 47 48 48
41 41 41 41 40 40 40 40 41 41 40 39 39 39 39 39 38 37 36 36 34 32 34 38 38 37 37 36 35 35 35 35 35 37 39 41 43 44 45 47 48 47
39 40 41 41 41 41 41 41 42 42 41 40 40 39 38 38 38 37 36 35 35 34 33 36 40 41 40 41 40 39 38 38 38 38 39 41 43 45 46 47 47 47
39 40 41 42 43 43 42 42 43 43 43 42 41 40 39 39 39 38 37 35 35 35 34 34 38 42 44 44 44 44 43 43 43 42 42 42 43 44 46 48 49 48
40 40 42 43 44 44 44 44 44 45 45 44 43 42 41 40 40 39 39 37 36 35 34 34 35 40 45 46 47 47 48 47 48 48 47 46 45 45 45 48 50 50
42 42 43 45 46 46 46 45 46 46 47 46 45 44 43 43 42 41 41 40 39 37 36 35 35 37 42 47 50 51 52 52 52 53 52 51 50 49 48 48 50 52
45 44 45 46 47 47 47 47 47 48 48 48 48 47 46 45 45 44 43 42 41 40 39 38 37 36 38 43 48 52 54 55 55 56 57 57 56 54 52 51 51 53
48 48 47 47 48 48 49 49 49 50 50 50 50 50 49 48 47 47 47 46 45 44 43 41 39 38 38 40 44 49 54 57 58 59 60 61 61 61 59 57 55 54
49 49 49 49 49 50 50 50 51 51 51 52 52 52 51 51 50 51 50 50 49 48 47 45 43 41 40 40 42 45 49 54 58 61 62 63 64 65 65 64 61 58
50 50 51 51 51 51 51 52 52 53 53 53 53 53 53 53 53 53 53 53 53 52 51 49 48 45 43 42 43 44 46 50 54 59 62 65 67 68 69 69 68 65
50 50 51 52 52 52 53 53 53 54 54 55 55 55 55 55 55 56 56 56 56 56 55 53 52 50 48 47 46 46 47 48 51 54 59 63 67 70 72 73 73 72
51 51 52 52 53 53 53 54 54 55 55 56 56 56 56 56 57 57 58 59 59 59 58 58 56 55 54 53 51 50 49 50 51 53 56 59 64 69 72 75 76 76
50 51 52 52 53 53 53 54 55 55 56 56 57 56 56 57 58 59 60 61 62 62 61 61 61 60 59 59 57 55 54 53 53 54 56 58 61 65 69 74 77 79

ECMWFNIL_250_spd_111.txt.gz
Wind_Speed
65 64 63 61 60 58 57 56 57 58 59 60 61 63 64 64 64 64 64 63 61 61 63 64 64 63 59 54 51 45 40 36 32 29 27 34 39 39 38 36 37 37
64 64 62 61 59 58 58 58 59 59 60 60 62 62 63 62 62 61 60 59 58 59 60 61 61 61 56 51 47 41 38 35 29 26 26 32 38 38 36 35 37 38
64 63 63 62 61 61 61 60 60 59 59 59 59 59 59 58 57 56 55 56 56 56 57 58 59 58 52 47 43 39 36 31 25 21 24 31 36 36 35 35 35 36
62 62 62 62 61 60 59 58 57 56 56 55 55 54 53 53 52 51 51 52 52 52 53 54 56 54 49 44 39 37 33 25 19 16 22 30 33 34 34 35 34 33
56 56 56 56 55 55 54 54 53 52 52 52 51 50 49 48 47 46 47 47 48 48 49 51 51 50 46 40 35 32 26 18 13 13 24 31 33 33 32 35 35 33
50 51 52 52 52 52 52 51 50 49 49 48 47 46 45 44 42 42 43 44 45 46 46 47 47 46 43 37 31 27 20 11 8 14 27 32 33 33 32 34 34 32
49 50 50 50 50 50 49 49 48 48 47 46 45 44 42 41 39 39 40 42 43 44 44 44 44 43 40 35 28 22 14 6 7 14 25 29 30 31 32 32 32 31
48 49 49 49 49 49 49 48 48 47 46 45 44 43 41 39 37 37 38 40 42 42 42 42 42 40 38 33 26 19 11 7 10 14 21 26 28 30 31 31 31 31
47 48 49 49 49 49 49 49 48 47 46 45 43 42 41 39 36 35 37 38 40 41 41 41 40 38 35 32 27 19 12 11 13 16 21 26 29 30 31 31 30 30
48 48 49 50 50 50 49 48 47 46 45 44 43 42 41 39 36 35 35 36 37 39 39 39 38 36 33 31 28 22 15 13 14 17 21 26 30 31 32 32 31 29
49 50 50 50 50 50 49 48 47 46 45 44 43 42 41 39 37 34 34 35 35 36 37 38 37 35 32 30 29 26 20 17 17 18 22 26 29 32 33 34 35 33
50 50 50 50 50 49 49 48 47 46 45 44 43 42 41 39 37 35 34 34 34 35 35 36 36 36 33 29 29 29 25 22 22 22 23 26 29 32 34 36 38 36
49 49 49 48 48 48 47 47 46 46 45 44 42 42 41 40 38 36 34 34 34 34 34 34 34 35 34 30 27 28 29 27 27 27 27 28 29 32 34 36 38 39
47 47 47 46 46 46 46 46 45 45 44 43 42 42 41 41 39 37 36 35 34 34 34 34 33 33 34 33 29 27 28 31 31 31 31 32 32 33 36 38 39 41
47 47 47 46 46 45 45 45 45 44 44 43 42 41 42 42 41 39 38 37 36 35 35 34 34 33 33 33 32 29 27 30 33 36 36 36 37 37 38 40 41 43
48 48 47 47 47 46 46 45 44 44 43 43 42 42 42 43 43 42 41 40 39 37 36 35 35 35 34 33 34 33 30 29 31 36 39 40 41 42 42 43 44 44
49 49 49 48 48 47 47 46 45 44 43 43 42 42 43 44 44 44 44 43 42 40 39 37 37 37 36 35 34 34 34 32 31 33 38 42 44 45 46 47 47 47
50 50 50 49 49 48 48 47 46 45 44 44 44 44 44 45 46 46 46 46 45 44 43 41 39 39 39 38 37 36 36 36 35 34 35 39 43 47 49 49 50 50
51 51 52 51 51 50 49 48 47 46 46 46 46 46 46 46 47 48 48 48 48 48 47 45 44 43 42 41 40 39 38 38 37 37 37 37 40 44 48 51 52 52
52 53 53 53 53 52 51 50 49 48 48 47 47 48 48 47 48 49 50 50 50 50 49 49 48 47 46 45 43 42 42 41 40 39 39 39 40 42 45 49 53 54
54 54 54 54 54 53 52 52 51 50 50 50 49 49 49 49 49 50 51 51 52 52 51 51 51 50 50 49 48 47 46 45 44 43 42 42 42 42 44 47 50 53
56 55 55 54 53 53 52 52 52 52 52 52 52 51 50 50 50 51 52 53 53 54 54 53 53 53 53 52 52 51 50 49 48 47 46 46 45 45 45 46 48 51
55 54 54 53 52 52 52 52 53 52 52 52 52 52 52 51 52 52 52 53 54 55 55 55 55 55 55 55 55 54 54 54 53 51 51 50 49 48 48 47 48 50
54 53 52 51 51 50 50 51 51 52 52 51 52 52 53 53 53 53 54 54 55 56 56 57 57 57 57 57 57 57 57 57 57 56 55 54 53 53 52 51 50 50
53 52 51 51 50 49 48 48 49 50 51 51 51 52 52 53 54 54 55 55 56 57 57 58 58 59 59 59 59 59 60 60 60 59 59 58 57 57 56 55 54 53
52 52 52 52 51 50 49 48 48 49 50 50 51 51 52 53 54 54 55 56 57 57 58 59 59 60 60 61 61 61 62 62 62 62 62 62 62 61 61 60 59 58

ECMWFNIL_250_spd_114.txt.gz
Wind_Speed
59 59 59 60 62 64 66 68 68 67 65 62 59 57 56 55 54 53 52 51 51 50 49 49 48 47 46 47 49 51 51 51 51 51 48 43 38 35 34 31 26 25
58 59 60 61 63 64 64 64 62 60 58 56 54 52 51 50 49 49 48 48 47 46 46 46 45 43 42 44 47 49 49 48 47 46 44 40 38 34 29 25 20 22
55 57 58 58 58 58 58 57 55 54 52 50 48 47 46 46 46 45 45 45 45 44 43 43 42 40 39 42 45 47 47 46 44 42 40 38 36 30 23 17 14 20
51 51 52 52 51 51 51 51 49 48 47 45 45 45 45 44 44 43 43 43 43 42 41 40 40 38 37 39 42 44 44 43 39 37 36 34 31 24 15 9 11 18
46 47 46 46 46 46 46 46 46 45 45 45 45 45 44 43 43 42 43 43 42 41 39 38 38 37 36 36 39 41 41 39 35 32 31 29 24 16 8 7 12 17
43 43 43 43 43 44 44 45 45 46 45 45 45 44 44 43 43 43 42 42 41 40 38 37 37 36 35 34 36 38 38 36 32 29 27 24 18 10 7 11 15 17
41 41 41 42 43 44 44 45 46 46 46 46 45 45 45 44 43 43 42 41 41 40 38 36 36 36 34 33 33 34 36 34 30 26 24 21 15 11 12 15 17 18
40 40 41 42 43 44 45 46 47 47 47 47 47 47 46 45 44 43 43 42 41 40 38 36 36 35 34 33 31 31 33 32 29 24 22 20 16 16 18 19 20 21
41 41 42 43 44 45 46 47 48 49 49 48 48 47 47 46 45 44 43 42 42 41 39 37 35 35 34 33 31 29 30 30 28 23 21 21 20 21 23 23 23 23
42 43 44 45 46 47 48 49 49 49 49 48 47 46 46 45 44 43 43 42 42 41 39 37 35 35 34 33 31 29 28 28 28 24 21 22 23 24 27 28 27 26
45 46 46 47 47 48 48 48 48 47 47 46 45 44 44 44 43 42 42 42 42 41 40 38 36 35 34 33 32 30 28 27 27 25 21 22 24 26 28 30 31 30
46 47 46 47 47 47 47 47 46 45 44 44 43 43 43 43 43 43 43 43 42 41 40 39 37 36 35 34 33 32 30 27 26 25 23 21 24 27 29 31 33 34
46 46 46 47 47 47 47 46 45 45 44 44 43 44 44 44 44 44 44 44 43 42 41 40 38 37 37 35 34 33 32 29 27 26 24 23 23 27 31 33 33 35
47 48 48 48 49 49 48 47 46 46 46 46 46 46 46 45 46 46 46 45 44 43 42 42 41 39 39 37 36 35 34 32 30 28 26 24 23 24 29 34 37 37
50 50 50 51 50 50 49 48 48 48 48 48 49 48 48 47 47 47 47 46 45 44 43 43 42 41 41 40 39 37 36 35 33 31 29 27 25 24 26 31 37 40
51 51 52 52 51 50 50 49 49 49 50 50 50 50 50 49 49 48 47 47 46 45 45 44 44 43 43 42 42 40 39 37 36 35 33 31 29 27 27 28 32 38
52 52 52 52 51 51 50 50 50 50 51 51 52 52 52 52 51 50 49 48 48 47 46 46 46 45 45 45 44 44 42 41 39 38 37 35 34 32 31 29 30 33
53 53 53 53 52 51 51 51 51 51 52 53 53 54 55 55 54 53 51 49 49 48 48 47 47 47 47 47 46 45 45 44 42 41 41 40 38 37 36 34 33 33
55 54 55 54 53 52 52 52 52 52 53 54 55 56 56 56 55 54 52 51 49 49 49 48 48 49 48 48 48 47 46 46 46 45 44 44 43 42 40 39 38 37
56 56 56 55 54 53 53 52 53 53 54 55 56 56 56 55 54 53 53 52 51 51 50 49 49 49 49 49 49 48 48 48 48 48 48 47 47 46 45 44 43 42
57 56 56 55 54 53 53 53 53 54 54 55 56 56 55 54 53 52 52 52 52 52 52 51 50 49 49 49 49 49 50 50 50 50 50 50 50 49 49 48 47 46
57 57 56 56 54 53 53 53 54 54 55 56 56 55 55 53 52 51 51 51 51 52 52 52 51 51 50 50 50 50 50 51 51 51 52 52 52 52 52 51 51 50
57 57 56 55 54 53 54 54 54 55 55 56 56 55 55 54 54 53 53 52 52 52 52 52 52 52 52 51 51 51 52 52 52 52 53 53 54 54 54 54 54 54
57 56 55 54 53 53 53 53 54 55 56 56 56 56 57 57 57 56 55 54 54 54 53 53 53 52 52 53 53 53 53 54 54 54 55 55 55 56 56 57 57 57
56 55 54 53 53 53 53 54 55 56 56 56 57 58 58 58 57 56 56 55 55 55 55 54 54 53 53 53 54 54 55 55 56 56 57 57 58 58 59 59 60 60
54 52 52 52 52 53 54 55 57 57 58 57 57 57 57 57 57 57 57 56 56 56 55 55 55 55 55 55 55 56 56 57 57 58 59 60 60 61 62 62 63 64

ECMWFNIL_250_spd_117.txt.gz
Wind_Speed
49 50 50 49 49 50 50 50 51 52 52 53 53 53 53 52 52 50 49 47 46 45 44 43 42 41 40 40 41 41 41 39 40 42 43 43 43 44 44 41 38 36
44 45 45 46 46 46 47 47 47 48 48 49 48 48 48 48 47 47 46 44 44 43 43 42 41 40 40 39 40 40 39 38 38 40 41 41 41 41 41 38 36 32
41 41 42 42 43 43 44 44 44 44 45 46 46 46 46 46 45 44 43 42 42 42 42 42 41 40 40 39 38 38 38 37 36 38 39 39 39 39 37 34 31 26
39 39 40 40 41 41 42 42 42 43 43 44 45 44 44 44 43 42 42 42 42 43 43 43 42 41 40 39 38 38 37 36 35 36 37 37 37 37 34 30 25 18
38 38 38 39 39 40 40 40 40 41 42 42 42 42 42 42 42 42 43 43 44 45 44 44 42 41 40 39 38 37 36 35 34 35 35 35 35 35 32 27 20 13
37 37 38 38 39 39 39 39 39 40 40 40 41 41 42 42 43 44 44 45 45 44 43 41 40 39 39 39 39 38 36 35 34 34 34 33 33 32 31 25 17 12
37 37 38 38 39 39 39 39 39 40 40 41 42 42 43 44 44 44 44 44 43 41 39 38 37 37 38 38 39 38 37 35 34 33 32 32 31 30 29 26 18 14
37 38 38 39 39 40 40 40 40 41 41 42 43 43 44 44 44 44 43 41 39 37 36 35 36 36 36 37 39 39 37 36 35 34 32 31 30 29 28 26 21 18
38 39 39 40 40 40 41 41 42 42 42 43 43 43 43 44 44 44 42 41 39 37 37 37 37 37 37 37 38 39 38 36 35 35 33 31 30 29 28 26 24 22
39 40 41 42 42 42 42 42 42 42 42 43 43 43 44 45 45 45 43 42 41 41 41 40 40 39 39 38 38 39 38 37 36 36 35 32 30 29 28 27 25 24
40 41 42 43 43 43 43 42 42 42 43 44 44 45 46 47 47 46 45 45 45 45 44 44 43 42 41 40 39 39 39 38 37 36 36 35 32 30 29 27 26 26
41 42 43 44 44 44 43 43 43 44 45 46 47 48 48 49 49 48 47 47 48 47 46 45 44 43 42 42 41 40 39 39 38 37 37 37 35 33 31 29 28 27
42 44 44 45 45 44 45 45 46 47 47 48 49 49 50 50 50 50 49 49 49 48 48 46 45 44 43 43 42 41 40 40 39 39 39 39 38 37 34 32 30 29
44 45 46 46 46 47 47 48 48 49 49 50 50 51 52 52 52 52 51 50 50 49 49 48 47 46 45 43 43 42 42 41 40 40 40 40 40 40 38 36 34 32
46 47 47 48 48 49 49 49 49 50 51 52 52 53 54 54 54 53 52 51 51 50 50 50 49 48 46 43 42 42 42 42 42 42 42 42 42 42 42 40 39 37
48 49 49 50 50 50 51 51 51 52 53 54 54 55 55 55 55 54 53 52 52 51 51 51 49 48 46 44 42 41 41 42 43 43 43 44 44 44 44 44 43 41
50 50 51 51 52 53 53 53 53 54 55 55 56 56 56 56 55 54 53 52 52 51 51 51 50 48 47 45 43 42 41 42 43 44 45 45 46 46 46 46 46 45
51 52 53 54 54 55 55 55 55 56 57 57 57 56 56 56 55 54 53 53 52 52 52 51 51 50 49 47 45 44 43 43 43 45 46 47 47 47 48 48 48 48
53 54 56 56 57 57 57 57 57 58 58 58 57 57 57 56 55 54 53 52 52 52 53 53 53 53 52 50 49 49 48 46 45 45 46 47 48 48 49 49 50 50
56 57 58 58 58 59 59 59 59 59 59 59 58 57 56 55 54 54 53 52 52 53 54 54 55 55 55 54 53 52 52 50 49 47 46 46 47 48 49 50 50 51
58 59 59 60 60 61 61 61 61 61 60 59 58 57 55 54 54 53 53 52 53 54 55 56 57 57 57 56 55 53 52 51 51 50 50 49 48 48 49 50 50 51
60 61 61 61 62 63 62 62 62 61 60 59 58 56 54 53 53 53 53 53 54 56 57 58 59 58 58 57 56 55 53 52 51 52 52 51 51 50 50 50 51 51
62 63 63 63 64 64 63 62 61 60 59 57 55 53 53 52 52 53 53 54 56 57 58 59 59 59 58 58 57 56 54 53 52 52 52 53 53 53 53 53 53 53
64 64 64 64 64 63 62 61 60 58 56 54 52 52 52 52 53 53 55 56 57 59 60 60 59 58 58 57 57 57 56 55 54 54 53 54 54 55 56 56 56 56
63 62 62 61 60 59 58 57 56 54 52 51 51 51 52 53 54 55 56 58 59 60 60 60 58 58 58 58 59 58 58 57 56 55 55 55 55 55 56 57 58 59
58 58 57 56 55 54 54 53 52 51 50 50 51 52 53 54 56 57 58 59 60 60 60 59 58 59 59 60 60 60 59 58 57 56 56 56 56 56 56 57 58 59

ECMWFNIL_250_spd_123.txt.gz
Wind_Speed
54 55 55 54 56 60 63 61 58 56 54 52 49 47 46 44 42 41 40 40 39 39 39 38 37 37 37 37 38 38 38 38 39 40 40 39 39 38 38 38 38 38
53 54 56 59 63 65 64 61 59 57 54 51 49 47 45 44 42 42 41 40 39 39 38 38 38 38 38 38 38 38 38 39 40 41 41 41 41 40 40 40 40 40
58 60 63 66 67 64 60 58 56 54 52 50 48 46 44 43 43 42 41 39 39 39 39 39 39 40 40 39 39 39 40 40 41 42 43 43 43 43 43 42 42 41
63 64 64 64 61 59 57 55 53 52 50 48 46 45 44 43 43 41 40 39 40 40 40 40 40 40 40 40 40 41 41 42 43 44 45 45 46 46 45 44 43 42
60 59 59 58 57 56 54 52 51 50 48 46 45 45 44 44 42 41 41 41 41 41 41 41 41 41 41 41 42 42 43 44 45 46 47 47 47 47 47 46 45 43
55 55 55 55 54 53 52 51 50 49 47 47 47 46 45 44 43 42 42 42 42 42 42 42 42 42 42 43 44 44 45 46 47 48 48 49 49 48 48 47 45 44
52 52 52 52 52 52 51 50 49 49 48 48 47 46 45 44 44 44 43 43 43 43 43 43 44 44 44 45 45 46 47 48 49 49 50 50 50 50 49 47 45 44
50 50 50 51 50 50 49 49 49 48 48 46 46 45 45 45 44 44 43 43 43 44 44 45 45 46 46 47 47 48 49 50 51 51 51 52 51 51 50 48 45 43
49 49 48 48 48 48 48 48 48 47 46 46 46 46 45 44 44 44 43 43 44 45 46 46 47 48 49 49 49 50 51 52 52 53 53 53 52 52 51 48 45 42
46 46 47 48 48 48 48 48 47 47 47 47 46 45 44 44 44 44 44 45 46 47 48 49 50 50 50 50 51 53 53 54 54 54 54 54 54 53 51 48 45 42
46 47 48 48 47 47 46 46 46 47 47 47 46 45 44 44 45 45 46 47 48 49 50 51 51 51 52 52 53 54 55 55 56 56 56 55 55 53 52 48 45 43
48 47 46 45 45 44 45 46 47 47 47 46 46 46 45 45 46 48 49 50 51 52 52 52 53 53 54 55 56 56 57 58 58 58 57 57 55 54 51 48 46 45
46 44 43 43 44 44 45 46 47 46 46 46 47 47 47 48 49 51 52 52 53 53 54 54 55 56 57 57 58 58 59 60 60 60 59 57 55 52 49 47 46 46
45 44 43 44 45 45 45 45 46 46 47 48 48 48 49 50 52 53 54 54 54 55 56 57 58 58 59 59 60 61 61 62 62 61 59 56 53 51 48 46 47 47
43 43 43 44 44 45 45 46 47 48 50 50 50 51 52 53 54 55 55 56 57 58 59 59 60 60 61 62 63 63 64 63 62 60 57 54 51 48 47 46 48 49
41 41 41 43 43 44 45 47 50 52 53 53 53 54 54 55 56 57 57 58 59 60 61 61 62 63 64 65 65 66 65 63 60 57 54 51 49 47 47 47 49 50
40 40 42 44 45 46 48 51 54 56 56 56 56 56 56 57 58 58 59 60 61 62 63 64 65 66 67 67 67 65 63 60 57 54 52 50 48 47 48 49 50 51
41 42 44 47 49 51 54 56 57 58 58 58 57 57 57 58 59 60 61 62 64 65 66 67 67 68 67 66 64 62 60 57 55 52 51 49 49 49 50 51 52 52
46 47 49 52 54 56 58 58 58 59 59 59 58 58 59 60 62 63 64 65 66 67 68 68 68 67 65 63 62 60 57 55 53 51 51 50 50 51 52 52 53 53
52 53 54 56 58 59 59 58 58 59 60 60 60 60 61 63 64 65 66 67 68 68 68 67 66 64 63 61 59 58 56 54 53 52 52 52 52 52 53 53 54 54
55 57 58 59 59 59 59 59 59 60 62 63 62 62 64 65 66 67 67 67 67 67 66 65 63 62 60 59 58 56 55 54 53 53 52 52 52 53 53 54 55 55
57 58 59 59 60 60 60 60 61 62 65 66 64 64 66 67 67 67 67 66 66 66 65 63 61 60 59 58 57 56 55 54 53 52 52 52 53 53 54 55 56 57
59 59 60 61 62 62 62 62 62 64 67 69 67 66 67 68 67 66 65 64 64 65 63 61 60 59 58 58 56 55 53 52 51 51 52 53 54 55 56 57 58 59
62 62 63 63 64 63 63 63 64 65 68 70 69 68 68 67 65 64 63 63 63 63 61 60 59 58 58 56 54 53 51 51 51 52 53 54 55 57 58 59 60 60
63 64 65 65 64 64 64 65 66 67 68 69 69 69 67 65 63 62 62 62 62 61 60 59 58 57 55 54 52 51 51 51 52 53 54 55 57 59 60 61 61 61
64 65 65 66 66 66 66 67 68 69 69 68 68 66 65 63 61 61 60 60 60 59 59 58 57 55 53 53 52 52 52 52 53 54 56 58 59 61 61 62 62 63

ECMWFNIL_250_spd_129.txt.gz
Wind_Speed
47 47 44 42 40 39 38 39 41 44 47 48 49 51 52 53 54 57 62 63 61 60 59 56 54 52 51 52 51 51 51 52 53 54 53 51 50 49 49 49 49 49
49 51 51 49 47 44 42 41 42 43 45 47 50 53 55 56 59 63 65 63 61 59 55 52 50 50 51 51 50 51 52 53 53 53 52 51 50 50 50 50 50 50
50 52 54 54 52 50 48 46 46 46 47 48 50 53 56 60 63 66 65 62 59 55 50 49 50 51 51 51 50 51 52 53 52 52 51 51 51 51 51 51 51 51
52 53 55 57 57 56 55 54 53 52 52 53 54 56 59 62 65 65 63 59 54 50 48 50 51 52 51 51 52 52 52 51 51 52 52 52 52 52 52 52 52 53
56 56 56 58 59 60 60 59 58 56 55 55 56 57 60 62 63 63 60 55 51 49 50 52 53 52 51 52 53 52 52 51 51 53 54 53 53 53 53 53 54 56
60 60 59 59 60 61 61 60 59 57 55 55 56 58 59 60 60 58 55 52 51 51 53 53 53 52 52 53 53 52 52 52 52 54 55 54 54 54 55 56 57 59
60 60 60 60 59 59 59 59 58 57 55 53 53 55 55 55 55 53 52 52 53 54 54 53 52 52 53 53 53 52 52 53 55 55 56 56 57 57 58 59 61 62
55 56 57 57 57 56 56 56 56 55 53 51 51 51 51 52 52 52 53 53 54 54 54 53 52 52 53 53 53 53 54 55 57 57 58 59 59 59 60 62 63 64
51 52 53 54 55 56 56 56 55 55 54 53 53 53 54 54 54 54 55 55 54 54 53 53 53 53 54 54 54 54 55 57 59 60 61 62 61 62 63 64 65 65
51 51 52 54 56 56 57 56 56 55 55 56 56 57 57 57 57 57 56 55 54 54 53 53 54 55 55 54 54 55 57 59 61 63 64 64 65 65 66 67 67 65
52 53 55 56 57 57 57 57 56 56 56 57 58 58 59 59 59 58 57 56 55 54 54 54 56 55 55 54 55 56 59 61 64 66 67 67 68 69 69 69 67 65
53 55 56 57 57 57 57 57 57 57 57 58 58 58 59 59 59 58 57 56 55 54 55 55 55 55 54 55 56 58 61 64 67 68 69 70 71 71 71 70 67 65
54 55 56 56 56 56 56 57 57 58 58 58 58 58 59 59 58 57 56 55 55 54 54 54 54 54 55 56 58 60 63 66 69 70 71 72 73 73 72 70 67 65
54 55 55 55 55 55 56 57 57 57 57 57 58 58 58 58 57 56 55 54 53 53 54 54 54 55 56 59 61 63 65 68 70 72 73 74 74 74 72 69 67 66
55 55 55 55 55 55 56 56 56 56 56 56 57 58 57 56 55 53 52 52 53 54 54 55 55 57 59 61 63 65 67 69 71 74 75 75 75 74 71 69 67 66
55 55 55 55 55 55 55 54 54 54 55 56 56 56 55 53 52 51 51 52 54 55 56 57 57 59 61 63 65 67 69 71 73 74 75 75 75 73 70 68 67 66
55 54 54 54 54 54 54 53 54 54 55 55 54 54 52 51 51 51 52 54 55 56 58 59 59 61 63 65 67 69 71 73 74 76 76 75 74 71 69 68 67 66
54 53 53 53 54 54 54 54 54 54 54 54 53 52 51 50 50 51 52 54 56 58 60 61 62 64 66 67 69 71 73 74 76 76 76 74 72 71 69 68 67 66
53 52 52 53 53 53 54 54 54 54 53 52 51 50 50 50 50 52 54 55 57 59 61 63 64 66 68 69 71 73 74 76 77 76 74 72 71 70 69 68 67 67
52 51 51 52 52 52 53 54 53 53 52 51 50 49 50 51 52 54 56 57 59 61 63 64 66 68 70 71 73 74 76 77 77 75 73 71 70 70 69 68 68 68
51 51 51 51 52 52 52 52 52 51 50 49 49 50 51 53 55 56 58 60 61 63 64 66 68 70 71 72 73 75 76 77 76 74 72 71 70 69 69 68 68 69
50 51 51 51 51 52 51 51 50 50 50 50 51 53 54 56 58 59 61 62 63 65 66 68 70 71 72 73 74 76 76 75 74 72 71 70 70 69 69 69 69 70
50 50 51 51 51 51 51 51 51 52 53 54 55 57 58 59 60 61 63 64 65 67 68 70 71 72 73 74 75 76 75 74 72 71 70 70 69 69 69 69 70 70
50 50 51 51 51 51 52 53 54 55 56 57 58 60 60 61 62 63 64 66 67 69 71 72 73 73 74 74 75 74 73 72 71 70 69 69 68 68 69 70 70 70
50 51 52 52 52 52 53 54 55 56 58 58 59 60 61 63 64 65 67 69 70 72 73 73 73 74 74 74 74 73 72 71 70 70 69 68 68 68 69 69 69 69
51 52 53 54 54 55 55 56 57 57 58 59 60 62 63 65 67 68 70 71 72 73 74 74 74 73 73 73 72 71 70 70 69 69 68 68 68 68 69 69 68 68

ECMWFNIL_250_spd_132.txt.gz
Wind_Speed
49 50 50 49 49 49 47 47 46 47 48 50 52 52 53 53 53 52 52 52 52 52 53 55 56 58 59 60 61 60 59 58 59 59 57 54 51 50 49 49 49 48
50 49 49 49 49 49 49 48 47 48 49 51 53 55 56 56 55 54 53 53 53 52 53 55 56 57 58 58 57 57 57 57 58 57 54 51 49 49 50 50 49 48
49 48 47 47 48 49 49 49 49 49 50 51 53 55 57 57 57 57 55 55 54 54 54 55 55 55 55 55 55 55 56 57 56 54 52 50 49 50 51 50 49 49
49 48 47 47 47 48 49 50 50 51 52 53 55 56 58 59 59 59 58 57 57 56 55 55 54 55 55 55 55 56 56 55 54 52 51 50 51 52 52 51 50 52
50 50 49 49 49 50 51 52 53 54 55 56 57 58 59 60 60 60 59 57 57 57 56 55 55 56 57 56 56 56 55 54 53 52 51 51 52 53 52 52 53 54
47 48 50 50 51 52 52 52 53 54 55 57 57 58 58 58 58 57 56 56 56 56 55 55 56 57 57 57 57 56 55 54 53 52 52 52 53 53 54 55 56 57
42 43 45 46 47 48 48 49 50 51 53 54 54 54 54 54 54 54 55 55 55 55 55 56 57 57 58 58 57 56 54 53 52 52 52 53 54 55 56 58 59 61
41 41 41 42 42 43 44 45 47 48 49 50 50 50 51 52 52 54 54 55 55 55 56 57 57 58 59 58 57 55 53 52 51 52 52 54 55 57 59 60 62 63
42 42 42 42 42 42 43 44 45 46 47 48 48 49 51 51 52 53 54 55 55 56 57 58 58 58 58 57 56 54 52 51 51 52 54 55 57 58 61 63 64 66
44 44 44 44 44 44 44 44 44 45 46 47 48 49 50 51 52 53 54 55 57 57 58 58 58 57 56 55 54 52 51 51 52 54 55 57 58 60 62 64 66 68
44 45 44 44 44 44 44 44 45 46 47 48 49 50 51 51 52 54 55 56 57 57 57 57 57 56 54 53 51 51 52 53 54 55 57 58 60 62 64 66 68 71
45 45 45 45 45 45 45 46 47 48 49 50 51 52 52 53 54 55 56 56 56 56 57 57 56 55 54 52 51 52 54 55 56 57 59 60 62 64 66 68 71 72
45 45 46 46 46 47 47 48 50 51 52 53 53 54 54 55 55 55 56 56 55 56 56 57 56 55 54 53 52 53 55 56 57 59 61 62 64 66 68 70 72 74
44 45 45 46 47 47 48 50 51 52 53 54 55 55 55 55 55 55 55 54 55 56 56 56 55 55 54 54 53 54 56 58 59 61 62 64 66 68 71 73 74 76
43 44 45 46 47 48 49 51 53 53 55 55 56 56 56 55 55 54 54 54 55 56 56 56 56 55 55 54 55 56 58 59 61 63 64 66 68 71 73 75 76 77
45 46 46 47 48 49 51 52 53 54 55 55 56 55 55 54 54 53 54 55 56 56 56 56 56 55 55 55 56 58 60 61 63 65 66 68 71 73 76 77 77 77
49 49 49 49 50 51 52 52 53 53 54 54 54 54 53 53 54 54 54 55 55 55 56 55 55 55 55 56 58 60 62 63 65 66 68 71 73 75 77 77 76 76
50 50 50 51 51 51 51 51 52 52 53 53 53 53 53 53 54 54 54 55 55 55 55 55 54 55 56 58 60 62 63 65 66 68 70 73 75 76 76 76 75 74
49 49 49 49 49 49 50 50 51 51 52 53 53 53 53 54 54 54 55 55 55 55 55 55 55 57 59 61 62 63 65 66 68 70 73 75 76 76 75 75 74 73
49 48 47 48 48 49 50 50 51 51 52 52 52 53 53 54 54 55 55 55 55 55 55 56 57 59 61 63 64 65 66 68 70 72 74 75 75 75 74 73 73 72
52 50 49 49 50 50 51 51 51 51 51 51 52 53 53 54 54 54 55 55 55 56 57 58 59 61 62 64 65 66 67 69 72 74 75 75 74 74 73 72 72 71
56 54 52 52 52 52 52 51 51 51 52 52 52 53 53 54 54 54 55 55 56 57 58 59 60 62 63 65 66 68 70 72 74 75 74 74 73 73 72 71 71 70
55 53 52 52 52 51 51 51 52 52 53 53 53 53 54 54 55 55 56 56 58 59 60 60 61 63 65 67 69 70 72 74 74 74 73 73 72 71 71 70 70 69
51 50 50 50 50 50 51 52 53 53 54 54 54 55 55 56 56 56 57 58 59 60 61 62 63 66 68 70 71 72 73 73 72 72 72 71 71 70 70 69 68 68
50 51 53 53 51 51 52 53 54 55 55 56 56 56 56 57 57 58 59 60 61 62 63 65 67 69 70 70 71 71 71 71 71 70 70 70 69 68 68 68 67 67
52 54 55 55 53 54 55 56 57 57 57 57 57 57 57 58 58 59 60 61 63 64 65 67 68 69 69 70 70 70 70 69 69 69 69 68 67 67 67 66 66 66

ECMWFNIL_250_spd_135.txt.gz
Wind_Speed
42 43 43 44 44 44 45 45 45 46 46 47 48 49 49 49 49 48 48 49 49 50 51 52 53 54 55 56 56 57 57 55 53 52 52 53 54 54 53 53 52 51
38 40 42 43 44 44 44 44 45 46 47 48 48 49 48 48 49 49 49 49 50 51 52 53 53 54 55 55 56 55 54 53 52 53 53 53 53 53 53 53 52 50
35 36 39 41 43 44 45 45 46 47 48 48 49 49 49 49 50 50 51 51 52 52 53 53 53 53 53 53 54 53 53 52 52 52 52 52 52 52 52 52 50 49
34 35 37 39 41 43 44 45 47 48 49 49 50 51 51 52 52 53 53 52 52 51 51 51 51 51 51 51 52 52 52 51 51 51 51 51 52 52 52 51 50 49
35 36 37 37 38 39 40 42 44 46 47 49 50 51 51 52 52 52 51 50 49 49 49 49 48 48 48 49 50 50 50 50 50 50 50 51 52 52 51 50 50 50
36 37 38 37 36 36 36 38 40 41 43 45 46 47 47 48 48 48 48 47 47 47 47 46 46 46 46 47 49 49 49 49 50 50 51 52 52 51 50 50 50 52
37 38 38 38 38 38 39 39 40 41 43 44 44 45 46 46 46 46 46 46 46 46 46 46 46 46 48 49 49 49 50 50 50 51 52 53 52 51 50 51 52 53
38 39 39 40 40 41 42 43 43 44 45 45 46 47 47 47 47 46 46 47 47 47 47 48 48 49 50 50 50 50 50 50 51 52 53 53 52 51 51 52 53 55
40 41 41 41 42 43 43 44 45 46 46 47 47 48 48 48 47 47 47 47 48 49 50 51 51 52 52 51 51 50 50 51 51 53 53 53 52 52 52 53 55 57
42 43 43 43 43 44 44 45 46 46 46 47 47 48 48 48 48 48 48 48 49 50 52 53 54 54 53 53 52 51 51 51 52 53 53 53 53 53 53 55 57 59
42 43 43 43 44 45 45 46 47 46 46 47 48 48 48 48 49 48 48 49 50 52 53 55 55 55 54 54 53 53 52 52 53 53 53 53 53 53 54 57 59 61
44 44 44 44 45 45 45 45 45 45 46 47 48 48 48 48 48 48 48 49 51 52 54 55 55 55 55 54 54 53 53 53 54 54 54 54 53 54 56 59 61 62
45 46 46 47 47 46 45 44 44 44 45 46 47 47 47 47 47 48 49 50 51 53 54 55 55 55 54 54 54 54 54 54 55 55 55 55 55 56 59 61 62 63
46 46 47 48 48 47 46 45 45 45 45 46 47 47 47 47 48 49 50 51 52 53 53 54 54 54 54 54 54 54 54 55 55 55 55 56 57 58 60 62 63 65
46 46 47 47 48 47 47 47 47 47 47 48 49 49 49 49 50 50 51 52 52 53 53 53 53 53 53 54 54 54 55 55 56 56 56 57 58 60 61 63 65 67
48 49 49 49 49 49 49 48 48 48 49 49 49 49 49 50 51 51 51 52 52 52 52 52 52 53 53 53 54 54 54 55 56 56 57 58 60 61 62 64 67 69
49 49 49 49 50 49 49 48 48 48 48 49 49 49 50 50 51 51 51 52 52 51 52 52 52 52 52 53 53 54 55 56 57 57 59 60 61 62 64 67 68 69
49 49 49 49 49 49 49 49 48 48 49 50 50 51 51 52 52 52 52 52 52 51 51 51 51 52 53 53 54 55 56 57 58 59 60 61 63 65 67 68 69 69
49 49 48 48 48 49 49 49 49 50 51 52 52 53 54 54 53 53 52 52 51 51 51 51 52 53 54 54 55 56 58 59 59 60 62 63 65 67 68 68 68 69
47 47 47 48 48 49 49 50 51 53 54 54 55 55 54 53 52 51 51 51 51 51 52 52 53 54 55 56 56 58 59 60 61 62 63 65 67 68 68 68 68 69
46 47 48 49 49 49 50 52 54 55 56 56 55 54 52 50 50 51 51 52 52 52 53 54 55 56 56 57 58 59 60 62 62 64 65 66 67 68 68 68 68 68
47 47 47 48 49 51 52 53 55 55 56 56 55 53 52 53 54 55 55 54 55 55 56 57 57 57 57 58 59 60 62 63 64 65 66 67 67 68 68 67 67 67
46 45 44 45 48 50 52 53 54 54 54 55 55 55 57 58 59 58 57 57 57 58 57 58 58 58 58 59 60 62 63 64 65 66 67 67 67 67 67 66 65 65
44 45 47 49 52 52 52 53 54 54 54 54 56 57 59 59 58 58 58 58 58 59 59 59 59 59 59 59 61 63 64 65 66 66 67 67 67 66 65 64 63 62
40 42 44 47 52 53 52 52 53 54 55 56 57 57 57 56 56 57 58 59 59 60 60 61 60 59 59 61 63 64 65 65 66 66 66 66 65 64 63 62 61 61
38 37 37 41 49 53 54 56 57 56 56 56 56 55 55 55 56 57 58 59 59 60 60 60 59 59 60 62 64 65 66 66 66 66 65 64 63 62 61 60 60 60

ECMWFNIL_250_spd_138.txt.gz
Wind_Speed
30 30 35 37 37 37 37 38 41 42 40 37 37 38 39 40 41 42 42 43 43 44 45 46 47 48 50 50 50 49 47 45 43 43 43 44 45 46 47 49 50 50
33 33 36 37 38 38 38 39 40 39 37 35 36 37 38 40 41 41 42 42 42 43 43 44 45 46 47 46 46 44 43 42 43 44 45 46 47 48 49 50 51 51
35 35 36 36 36 37 37 37 36 34 33 34 35 36 38 39 39 39 39 40 40 40 41 42 43 43 44 43 43 43 43 44 45 46 47 48 49 50 51 51 51 51
35 36 36 35 36 36 36 35 33 31 31 32 33 34 35 35 35 36 37 38 38 39 40 41 42 42 43 42 42 43 44 46 47 48 49 49 50 51 52 52 51 51
34 34 34 34 34 35 36 35 33 31 31 32 33 34 35 36 36 37 38 39 40 41 41 42 42 42 43 43 43 44 46 47 48 49 49 50 51 52 52 52 52 52
36 35 36 37 37 38 38 37 34 32 32 33 34 35 37 38 39 39 40 41 41 42 42 42 43 43 44 44 45 45 46 47 48 49 50 50 51 52 52 52 52 52
41 40 40 40 40 40 39 36 34 34 34 35 36 37 38 39 40 40 41 41 42 42 43 43 43 44 45 45 45 46 46 47 48 49 50 51 51 52 52 52 52 52
44 44 42 41 39 38 37 36 35 36 37 37 38 38 39 40 40 41 41 42 42 42 43 43 43 44 45 46 46 46 47 48 48 49 50 50 51 52 52 52 52 52
44 44 42 40 39 39 39 38 38 38 38 38 38 39 40 40 40 41 42 42 43 43 43 43 44 45 45 46 46 47 48 49 49 49 50 51 52 52 52 53 53 52
43 43 42 42 42 42 42 40 39 39 38 38 39 40 41 41 42 43 43 43 43 43 44 45 46 46 46 47 48 49 49 49 50 50 51 52 53 53 53 53 53 53
44 44 43 43 44 43 42 41 40 39 39 40 41 42 42 43 43 44 43 43 43 44 46 47 47 47 48 48 49 49 49 50 50 51 52 53 54 54 54 54 54 54
43 43 43 43 44 43 41 41 40 40 40 40 41 42 43 44 44 44 44 45 46 47 48 48 48 48 47 48 48 50 50 51 51 52 53 54 54 54 55 55 55 55
41 42 42 43 43 42 41 41 40 40 40 41 43 44 45 45 46 46 47 47 48 48 48 47 47 47 48 49 50 50 50 51 51 52 53 54 55 55 56 56 57 57
41 42 43 44 43 42 42 42 42 42 43 44 45 46 46 47 48 48 48 48 47 47 47 47 47 48 49 50 50 50 50 51 52 53 55 56 56 57 57 57 58 58
43 43 44 44 43 43 43 44 44 44 45 45 46 46 47 47 48 48 47 47 47 46 46 47 47 48 49 49 50 50 51 52 53 55 57 58 58 58 59 59 59 59
44 45 45 45 44 44 44 44 44 45 45 46 46 47 47 47 47 47 46 46 47 47 47 47 47 48 49 50 51 53 54 54 55 57 59 59 60 60 60 60 60 60
45 45 45 45 44 43 43 43 44 44 45 45 46 46 46 46 46 46 46 46 47 47 47 47 48 49 51 53 54 55 56 56 57 59 60 61 61 62 62 61 61 61
43 43 43 43 42 42 42 42 43 43 44 44 45 45 45 45 46 46 47 47 47 47 47 49 50 52 54 55 56 57 57 57 59 61 62 62 62 62 61 61 61 62
41 41 41 41 41 41 41 41 41 42 43 44 44 44 45 46 46 47 47 47 48 49 50 51 53 54 55 56 57 57 58 59 60 61 62 62 61 61 60 60 62 64
41 40 40 39 39 39 39 40 41 42 44 45 45 46 47 48 48 48 48 49 50 51 52 53 54 55 56 57 57 57 58 59 60 61 61 61 61 60 60 61 64 65
38 37 37 36 36 38 40 41 43 45 46 47 46 47 47 47 48 48 48 48 50 51 51 53 54 55 56 55 55 57 58 59 60 60 60 60 60 60 61 64 65 65
37 36 36 37 38 40 42 43 44 45 44 44 43 44 45 46 47 47 47 47 48 49 51 53 54 54 54 54 56 57 58 58 59 59 60 60 61 62 64 65 65 64
36 37 38 38 39 40 40 40 42 42 41 40 41 42 43 44 44 45 46 47 48 50 52 54 54 54 54 56 57 57 57 57 58 59 60 62 63 64 65 64 64 63
38 38 39 39 38 39 36 33 36 41 42 42 43 42 42 43 45 47 49 50 52 54 55 55 55 56 56 57 57 57 56 57 58 60 61 62 63 63 63 63 63 63
40 39 38 36 36 36 33 30 33 38 42 45 44 43 45 48 52 53 53 54 55 56 57 56 56 56 56 57 57 56 56 57 59 60 61 62 63 63 63 63 62 61
40 38 35 31 31 30 28 29 34 39 43 46 46 46 49 53 54 54 55 56 57 56 55 55 56 57 57 57 57 57 57 59 60 61 63 64 64 64 63 62 61 59

ECMWFNIL_250_spd_141.txt.gz
Wind_Speed
34 33 33 34 36 39 40 39 36 36 34 33 34 36 37 37 37 36 36 34 32 32 32 32 33 34 34 35 36 36 37 38 39 39 39 40 41 43 45 47 48 48
34 31 32 36 39 40 42 40 37 36 34 33 35 36 37 37 35 33 32 32 32 31 31 32 33 34 35 36 37 38 38 39 39 39 40 41 43 44 45 47 48 49
36 30 33 39 40 41 42 39 36 35 34 34 36 37 38 37 35 32 32 32 32 32 33 34 35 36 36 37 38 38 38 39 39 40 41 42 43 45 46 48 49 49
35 31 35 41 41 41 40 37 34 33 34 36 37 38 38 36 34 33 34 34 33 33 34 35 36 37 37 37 37 37 38 39 39 40 41 43 44 46 47 48 48 48
33 32 36 41 41 40 38 36 34 34 35 37 38 38 37 35 35 35 36 35 35 34 34 35 36 36 37 37 37 37 38 38 39 40 42 44 46 47 48 48 48 48
32 33 37 39 39 39 38 36 36 36 37 38 37 37 36 36 37 37 37 36 35 34 34 35 36 36 37 36 36 37 37 38 39 42 44 45 46 47 47 48 48 48
31 34 37 38 39 39 38 37 37 37 37 37 38 38 38 39 39 38 37 36 35 35 35 36 36 37 37 36 36 37 38 40 42 43 44 45 46 47 47 47 48 48
29 33 37 39 39 39 39 38 37 37 38 38 39 39 39 40 39 39 38 37 37 36 36 36 37 37 37 37 37 38 41 42 43 44 44 45 46 46 47 47 49 51
29 33 37 38 39 40 39 39 38 38 39 39 39 39 40 40 40 40 39 39 38 37 36 37 37 38 38 38 39 41 43 43 44 44 44 45 45 46 47 49 52 54
31 34 36 37 39 41 40 41 40 40 41 41 41 42 42 42 42 41 40 39 38 37 37 38 38 39 39 40 42 43 43 43 44 44 44 45 46 47 50 52 54 55
34 36 37 38 40 41 41 42 42 41 42 42 43 44 44 43 42 40 39 39 39 39 39 39 39 40 41 42 42 43 43 43 44 44 44 45 47 50 53 54 55 54
36 38 39 40 41 41 41 42 41 42 43 44 44 44 44 42 41 40 40 40 40 40 39 39 40 41 42 42 43 43 44 44 44 44 46 48 50 52 54 54 54 54
36 38 39 41 41 41 42 42 42 43 44 44 44 44 43 42 41 41 41 41 40 40 40 40 41 42 43 43 43 44 44 44 44 46 48 50 52 52 53 53 53 55
35 38 39 39 40 40 40 40 41 43 43 44 44 43 43 42 41 41 41 41 41 41 40 41 41 43 43 43 43 44 44 45 46 48 50 51 51 51 52 53 54 56
38 39 39 40 40 40 40 40 41 42 43 44 44 44 44 43 41 41 41 41 41 41 40 41 42 43 43 43 44 44 45 46 47 48 49 50 51 51 53 54 55 56
42 42 43 42 42 41 41 41 41 43 43 44 45 45 43 42 42 42 41 41 40 40 40 41 42 43 43 44 45 45 46 47 48 48 49 51 52 53 55 55 55 55
41 42 41 41 40 40 40 40 41 42 43 44 44 43 42 42 42 41 40 40 40 40 40 41 42 43 44 45 46 46 47 47 47 48 51 52 54 56 56 55 55 55
38 38 38 37 38 38 38 39 40 41 41 42 42 41 41 41 40 40 40 40 40 41 42 43 44 44 45 45 45 45 45 46 48 51 53 54 56 57 56 55 55 55
37 37 37 37 37 37 38 38 39 39 39 39 39 39 40 39 39 40 40 41 42 43 44 44 44 44 44 43 43 44 46 48 51 53 55 56 58 57 56 56 55 55
36 37 36 36 36 36 37 37 37 38 38 39 39 39 39 39 40 40 41 43 43 43 43 42 42 41 41 41 43 46 49 52 54 56 57 58 58 57 56 57 56 57
31 31 30 30 32 33 34 35 36 38 39 40 40 40 40 41 41 42 43 43 42 41 41 41 40 40 42 45 48 51 53 55 56 57 58 58 57 57 58 58 57 59
25 26 27 29 30 30 32 34 36 38 40 40 40 40 40 41 42 43 43 42 41 41 41 41 41 43 46 50 52 54 56 56 57 57 57 57 57 58 60 59 58 60
27 28 29 29 30 31 34 36 37 38 38 37 37 37 37 39 41 42 42 43 43 43 43 42 43 46 49 52 54 56 56 56 56 56 56 56 58 60 61 60 59 62
32 31 31 32 34 37 38 37 35 34 34 34 35 37 38 40 42 42 42 43 43 44 44 44 46 49 51 53 54 55 54 55 55 56 56 58 60 63 62 61 62 64
36 36 37 39 40 38 35 34 32 32 34 36 38 39 39 39 39 39 40 41 41 43 44 46 49 52 53 53 53 54 54 56 56 56 58 60 63 65 64 63 64 66
38 39 40 41 40 36 33 33 33 34 36 37 38 38 37 36 37 38 39 41 42 44 46 49 52 53 54 54 54 55 56 57 57 57 60 63 65 66 65 65 66 69

ECMWFNIL_250_spd_144.txt.gz
Wind_Speed
35 37 33 28 27 29 32 32 29 29 30 29 29 30 30 32 34 36 37 38 39 40 41 39 37 37 36 36 37 38 38 37 38 38 38 38 38 39 39 40 41 42
35 37 35 32 31 34 35 32 30 30 29 28 30 31 32 34 36 38 39 40 41 41 41 39 38 37 36 37 38 38 37 37 38 38 38 39 39 40 40 41 41 42
38 37 36 35 35 36 35 33 32 32 31 29 31 33 35 38 40 40 41 41 41 42 41 40 39 38 38 38 37 37 37 38 38 39 39 40 40 41 41 41 42 44
41 39 36 36 37 36 34 34 35 35 33 31 33 36 38 40 41 41 40 40 41 42 42 42 41 39 38 37 37 38 38 38 38 39 40 41 41 41 42 42 44 45
43 42 40 39 38 36 34 36 38 38 34 32 34 37 40 41 40 39 39 41 42 43 44 43 41 39 38 37 38 39 39 39 39 40 42 42 41 42 42 44 45 45
44 44 42 40 38 37 37 38 39 37 34 34 36 37 39 40 40 40 41 43 44 44 43 42 40 39 38 39 39 40 40 40 41 42 42 42 41 42 43 44 45 45
44 43 41 39 39 40 40 40 39 37 35 36 37 39 40 41 40 42 44 44 44 43 42 41 40 39 40 40 40 40 41 41 42 42 42 42 42 43 44 45 44 44
44 44 43 42 42 43 42 41 39 36 35 37 39 40 42 42 43 43 44 43 43 42 42 41 41 41 41 41 41 42 42 43 43 42 42 42 43 44 44 44 44 45
42 42 42 42 42 41 40 40 39 37 36 38 40 42 42 43 43 42 41 41 41 41 42 43 43 43 42 42 43 43 44 43 43 42 42 43 43 44 44 44 45 46
37 37 38 39 39 39 39 39 38 37 37 40 42 42 42 42 41 40 40 40 41 42 44 45 45 44 44 44 44 44 44 43 43 43 43 43 43 44 44 45 46 47
38 38 39 39 38 38 38 38 37 37 37 40 41 42 42 42 41 40 40 41 43 44 46 46 46 45 45 45 44 44 44 43 43 43 43 43 44 44 45 47 47 48
39 40 40 38 37 36 37 37 37 36 36 38 40 41 42 42 41 41 41 43 45 46 47 47 46 46 46 45 45 44 43 43 43 43 43 43 44 46 47 47 47 48
36 39 38 37 36 37 38 38 37 36 36 38 40 42 43 43 42 42 43 44 46 46 47 47 47 47 46 45 44 43 42 43 43 43 44 45 46 47 47 47 48 50
36 37 35 34 36 38 38 39 39 38 38 40 41 43 44 44 44 43 44 45 46 47 47 47 47 46 44 43 42 42 42 43 44 45 46 47 47 47 47 47 49 51
35 36 36 35 36 36 36 38 39 40 41 43 44 45 45 45 45 45 46 46 46 47 47 47 46 44 43 42 42 42 43 44 45 47 48 48 48 47 47 49 52 53
34 35 38 39 37 37 37 38 38 40 42 43 44 46 46 46 47 47 46 46 46 46 46 45 44 43 42 41 42 43 45 46 47 48 48 48 47 47 49 52 54 54
35 35 37 40 40 39 39 40 40 41 42 44 45 47 48 47 47 46 45 45 46 46 46 45 44 42 41 41 43 44 46 48 48 48 48 47 47 49 52 54 55 55
36 36 37 38 40 41 42 43 43 43 44 45 46 46 47 46 45 44 44 45 46 45 44 43 42 41 40 42 44 46 47 48 47 47 47 48 49 51 54 56 56 56
38 38 37 38 39 40 41 42 43 43 44 44 44 45 46 45 45 44 44 44 43 42 40 40 39 40 41 43 45 46 47 46 46 47 48 49 51 54 55 57 57 56
39 38 38 38 38 39 39 40 40 41 41 42 44 45 45 44 43 41 40 39 38 38 37 38 39 40 42 43 45 46 46 46 47 48 48 50 53 55 56 57 57 56
38 38 38 37 38 38 37 37 38 39 40 42 43 43 42 40 38 37 36 37 37 37 37 39 40 41 41 43 44 45 46 47 49 49 50 52 54 55 57 57 57 57
35 34 33 33 34 35 35 35 36 37 38 40 41 39 37 36 36 37 37 37 37 38 39 39 40 40 41 43 44 46 48 49 50 51 52 54 54 55 56 57 57 59
32 31 30 30 31 32 33 33 34 35 37 38 38 37 36 37 37 36 35 36 37 39 39 40 41 42 43 44 45 46 48 49 51 52 54 54 55 56 56 57 59 60
32 31 31 31 31 31 31 31 33 35 36 38 37 37 37 37 36 35 35 36 38 40 42 43 44 44 43 43 44 45 47 50 52 54 55 55 55 56 58 59 61 62
31 31 32 32 32 32 31 32 34 35 35 35 36 37 36 35 35 35 37 39 41 44 45 45 44 44 44 43 44 45 47 50 53 56 57 57 56 57 59 61 63 65
33 32 33 33 34 35 33 33 35 36 36 38 38 37 35 35 36 38 40 43 46 46 45 44 43 43 43 43 44 47 49 51 54 57 58 58 58 58 60 63 65 66